Regional Weather Roundup
Issued by NWS

Home | Current Version | Previous Version | Text Only | Print | Product List | Glossary On
Versions: 1 2 3 4 5 6 7 8 9 10 11 12 13 14 15 16 17 18 19 20 21 22 23 24 25 26 27 28 29 30 31 32 33 34 35 36 37 38 39 40 41 42 43 44 45 46 47 48 49 50
000
ASUS44 KFWD 041015
RWRTX
NORTH TEXAS HOURLY WEATHER ROUNDUP
NATIONAL WEATHER SERVICE FORT WORTH TX
500 AM CDT WED MAY 04 2016

NOTE: "FAIR" INDICATES FEW OR NO CLOUDS BELOW 12,000 FEET WITH NO
SIGNIFICANT WEATHER AND/OR OBSTRUCTIONS TO VISIBILITY.

TXZ118-119-041100-
DALLAS/FORT WORTH METROPLEX

CITY           SKY/WX    TMP DP  RH WIND       PRES   REMARKS
DFW AIRPORT    CLEAR     59  54  83 W7        30.05R
DALLAS LOVE    CLEAR     58  53  84 CALM      30.05S
FTW MEACHAM    CLEAR     56  53  90 CALM      30.05S
DAL-EXECUTIVE  CLEAR     55  51  86 W5        30.05R
FTW-ALLIANCE   CLEAR     49  48  97 CALM      30.05S
FTW-NAS-JRB    CLEAR     57  52  83 W5        30.06S
FTW-SPINKS     CLEAR     52  50  91 W3        30.08R
ARLINGTON      CLEAR     56  52  86 CALM      30.06R
GRAND PRAIRIE  CLEAR     58  53  82 CALM      30.07S
ADDISON        CLEAR     59  56  89 W3        30.07S
MESQUITE       CLEAR     56  49  79 W3        30.05S
LANCASTER      CLEAR     53  48  83 W5        30.06S
$$

TXZ091>094-102>105-117-120-121-131>134-041100-
NORTH CENTRAL TEXAS

CITY           SKY/WX    TMP DP  RH WIND       PRES   REMARKS
SHRMAN/DENISON CLEAR     48  45  87 SW3       30.05S
GAINESVILLE    CLEAR     53  50  90 W5        30.07S
BOWIE          CLEAR     54  52  94 W6        30.06S
BRIDGEPORT     CLEAR     52  52 100 W3        30.09R
DECATUR        CLEAR     54  53  98 W6        30.07R
DENTON         CLEAR     50  49  96 CALM      30.05S FOG
MCKINNEY       CLEAR     53  52  96 CALM      30.04S
GREENVILLE     CLEAR     52  50  93 CALM      30.04S
ROCKWALL       CLEAR     59  53  82 NW5       30.04S
TERRELL        CLEAR     55  50  83 CALM      30.05
WAXAHACHIE     CLEAR     52  52 100 W5        30.07R
CLEBURNE       CLEAR     52  52 100 CALM      30.08S
GRANBURY         N/A     50  49  94 CALM      30.08S
$$

TXZ083>090-098>101-113>116-127>130-139>142-154-155-041100-
WESTERN NORTH TEXAS

CITY           SKY/WX    TMP DP  RH WIND       PRES   REMARKS
WICHITA FALLS  CLEAR     54  52  93 W14       30.06S
WF-KICKAPOO    CLEAR     56  52  88 W7        30.08S
ABILENE        CLEAR     53  52  96 CALM      30.13
ABILENE-DYESS  CLEAR     51  50  95 SW3       30.11S
BRECKENRIDGE   CLEAR     53  53  99 W3        30.09S
GRAHAM         FOG       47  47 100 CALM      30.07S VSB 3/4
MINERAL WELLS  FOG       51  50  96 CALM      30.06S VSB 3/4
STEPHENVILLE   CLEAR     54  51  90 CALM      30.10S
COMANCHE       CLEAR     55  51  86 MISG      30.09S
BROWNWOOD      CLEAR     50  50 100 CALM      30.11S
COLEMAN        CLEAR     51  50  96 W3        30.12R
$$

TXZ143>147-156>162-174-175-041100-
CENTRAL TEXAS

CITY           SKY/WX    TMP DP  RH WIND       PRES   REMARKS
WACO           CLEAR     51  48  89 W5        30.07R
WACO-MCGREGOR  CLEAR     52  50  93 CALM      30.07S
HILLSBORO      CLEAR     51  49  95 CALM      30.07R
CORSICANA      CLEAR     53  48  83 SW5       30.07R
HEARNE         CLEAR     50  49  96 CALM      30.07S
CAMERON        CLEAR     54  52  92 NW3       30.06S
TEMPLE         CLEAR     51  49  92 N3        30.07S
KILLEEN        CLEAR     59  48  68 W7        30.06S
FORT HOOD      CLEAR     55  49  79 NW3       30.06R
GATESVILLE     CLEAR     52  50  93 MISG      30.09S
HAMILTON       CLEAR     54  51  92 W8        30.09R
LAMPASAS       CLEAR     55  51  86 W5        30.08S
$$

TXZ095>097-106>112-122>126-135>138-148>153-164>167-041100-
EAST TEXAS

CITY           SKY/WX    TMP DP  RH WIND       PRES   REMARKS
PARIS          CLEAR     54  43  66 W3        30.03S
SULPHUR SPRNGS CLEAR     55  52  88 CALM      30.06S
MOUNT PLEASANT CLEAR     51  51  99 CALM      30.04F
GILMER         CLEAR     51  50  97 CALM      30.03F
MINEOLA        CLEAR     52  50  93 CALM      30.05S
TYLER          CLEAR     54  49  83 CALM      30.03S
LONGVIEW       CLEAR     53  50  89 W5        30.02S
MARSHALL       CLEAR     53  50  90 CALM      30.04S
PALESTINE      CLEAR     51  51  98 CALM      30.06S
JACKSONVILLE   CLEAR     60  47  62 CALM      30.05F
HENDERSON      CLEAR     51  51  98 CALM      30.04S
NACOGDOCHES    CLEAR     50  48  93 CALM      30.03S
LUFKIN         CLEAR     52  50  93 CALM      30.03S
$$

SUPPLEMENTAL OBSERVATIONS (CENTRAL)

CITY           SKY/WX    TMP DP  RH WIND       PRES   REMARKS
LAKE TEXOMA      N/A     57  54  88 W5          N/A
CADDO GRASSLND   N/A     52  50  93 CALM        N/A
PAT MAYSE LAKE   N/A     55  54  94 SE1         N/A
GREENVILLE       N/A     54  50  87 SW1         N/A
CEDAR HILL       N/A     52  50  93 S1          N/A
ATHENS           N/A     52  50  93 NW1         N/A
LAKE LIMESTONE   N/A     54  52  94 W1          N/A
MCGREGOR         N/A     52  48  87 CALM        N/A
TEMPLE           N/A     57  48  72 W5          N/A
$$

SUPPLEMENTAL OBSERVATIONS (WEST)

CITY           SKY/WX    TMP DP  RH WIND       PRES   REMARKS
MILLERS CREEK    N/A     52  50  93 SW5         N/A
POSSUM KINGDOM   N/A     52  50  93 W3          N/A
LBJ GRASSLAND    N/A     54  52  94 NW1         N/A
GRANBURY         N/A     50  48  93 W1          N/A
COMANCHE         N/A     54  50  87 W7          N/A
HAMBY            N/A     48  46  93 CALM        N/A
COLORADO BEND    N/A     54  48  82 NW5         N/A
$$

SUPPLEMENTAL OBSERVATIONS (EAST)

CITY           SKY/WX    TMP DP  RH WIND       PRES   REMARKS
TEXARKANA        N/A     46  45  93 CALM        N/A
LINDEN           N/A     52  48  87 CALM        N/A
CADDO LAKE       N/A     48  45  87 CALM        N/A
LUFKIN           N/A     52  50  93 MISG        N/A
N SABINE NF      N/A     52  48  87 MISG        N/A
$$

SUPPLEMENTAL OBSERVATIONS ARE A COLLECTION OF AUTOMATED INSTRUMENTS
THAT ARE MAINTAINED BY A VARIETY OF FEDERAL AND STATE AGENCIES.
CERTAIN ELEMENTS...SUCH AS HUMIDITY VALUES AND SUSTAINED WIND
SPEEDS...MAY BE APPROXIMATED.





USA.gov is the U.S. government's official web portal to all federal, state and local government web resources and services.